Fort Eustis, VA

10:03 PM EDT on August 18, 2017 (GMT -0400)
Felker Army Air Field

Weather History for KFAF - November, 2011

Change the Weather History Date:

Friday, November 4, 2011

  Actual Average Record
Temperature  
Mean Temperature 53 °F -  
Max Temperature 61 °F 63 °F 77 °F (2003)
Min Temperature 46 °F 45 °F 33 °F (1996)
Degree Days  
Heating Degree Days 12    
Growing Degree Days 3 (Base 50)    
Moisture  
Dew Point 47 °F    
Average Humidity 78    
Maximum Humidity 100    
Minimum Humidity 53    
Precipitation  
Precipitation 0.25 in - - ()
Sea Level Pressure  
Sea Level Pressure 29.93 in    
Wind  
Wind Speed 6 mph (NNE)    
Max Wind Speed 17 mph    
Max Gust Speed 26 mph    
Visibility 10 miles    
Events Rain    
Averages and records for this station are not official NWS values.
T = Trace of Precipitation, MM = Missing Value Source: NWS Daily Summary

Daily Weather History Graph

Daily Weather History Graph

Search for Another Location

Airport or City:

Trip Planner

Search our weather history database for the weather conditions in past years. The results will help you decide how hot, cold, wet, or windy it might be!

Date:

Astronomy

Nov. 04, 2011 Rise Set
Actual Time 7:33 AM EDT 6:05 PM EDT
Civil Twilight 7:06 AM EDT 6:33 PM EDT
Nautical Twilight 6:35 AM EDT 7:03 PM EDT
Astronomical Twilight 6:05 AM EDT 7:34 PM EDT
Moon 2:49 PM EDT (11/4) 1:51 AM EDT (11/4)
Length of Visible Light 11h 26m
Length of Day
10h 32m
Waxing Gibbous, 69% of the Moon is Illuminated
Nov 4
Waxing Gibbous
Nov 10
Full
Nov 18
Last Quarter
Nov 25
New
Dec 2
First Quarter

Hourly Weather History & Observations

Time (EDT) Temp. Dew Point Humidity Pressure Visibility Wind Dir Wind Speed Gust Speed Precip Events Conditions
12:55 AM 48.0 °F 45.0 °F 89% 29.94 in 10.0 mi South 3.5 mph - N/A   Clear
1:55 AM 46.8 °F 44.2 °F 91% 29.95 in 10.0 mi Calm Calm - N/A   Mostly Cloudy
2:55 AM 47.5 °F 45.0 °F 91% 29.90 in 10.0 mi SE 4.6 mph - N/A   Partly Cloudy
3:55 AM 48.6 °F 46.0 °F 91% 29.90 in 10.0 mi Calm Calm - N/A   Mostly Cloudy
4:50 AM 50.0 °F 46.4 °F 87% 29.89 in 9.0 mi NW 3.5 mph - N/A Rain Light Rain
4:55 AM 50.0 °F 47.8 °F 92% 29.89 in 8.0 mi NW 3.5 mph - 0.03 in Rain Light Rain
5:46 AM 50.0 °F 48.2 °F 94% 29.88 in 7.0 mi Calm Calm - N/A   Mostly Cloudy
5:55 AM 50.0 °F 49.1 °F 97% 29.87 in 8.0 mi Calm Calm - 0.12 in   Mostly Cloudy
6:26 AM 50.0 °F 48.2 °F 94% 29.88 in 10.0 mi NNW 3.5 mph - N/A Rain Light Rain
6:35 AM 50.0 °F 50.0 °F 100% 29.88 in 10.0 mi NNW 4.6 mph - N/A   Mostly Cloudy
6:38 AM 51.8 °F 50.0 °F 94% 29.88 in 10.0 mi NNW 5.8 mph - N/A Rain Light Rain
6:48 AM 51.8 °F 50.0 °F 94% 29.88 in 10.0 mi NNW 6.9 mph - N/A   Overcast
6:52 AM 51.8 °F 50.0 °F 94% 29.88 in 10.0 mi NNW 5.8 mph - N/A Rain Light Rain
6:55 AM 52.2 °F 49.6 °F 91% 29.88 in 10.0 mi NNW 4.6 mph - 0.04 in Rain Light Rain
7:33 AM 51.8 °F 50.0 °F 94% 29.88 in 10.0 mi North 4.6 mph - N/A   Scattered Clouds
7:55 AM 51.1 °F 48.9 °F 92% 29.90 in 10.0 mi North 5.8 mph - 0.04 in   Mostly Cloudy
8:55 AM 51.1 °F 48.7 °F 92% 29.90 in 10.0 mi NE 3.5 mph - 0.02 in   Mostly Cloudy
9:55 AM 52.0 °F 48.9 °F 89% 29.87 in 10.0 mi East 6.9 mph - N/A   Clear
10:18 AM 53.6 °F 48.2 °F 82% 29.86 in 10.0 mi NE 5.8 mph - N/A   Mostly Cloudy
10:55 AM 54.7 °F 48.9 °F 81% 29.86 in 10.0 mi NE 6.9 mph - N/A   Scattered Clouds
11:55 AM 58.3 °F 48.6 °F 70% 29.87 in 10.0 mi NE 11.5 mph 18.4 mph N/A   Partly Cloudy
12:55 PM 60.4 °F 50.5 °F 70% 29.86 in 10.0 mi NNE 13.8 mph 25.3 mph N/A   Mostly Cloudy
1:55 PM 59.4 °F 47.7 °F 65% 29.86 in 10.0 mi NNE 16.1 mph 26.5 mph N/A   Overcast
2:55 PM 57.0 °F 47.5 °F 70% 29.89 in 10.0 mi NNE 11.5 mph 19.6 mph N/A   Mostly Cloudy
3:07 PM 57.2 °F 48.2 °F 72% 29.89 in 10.0 mi NNE 12.7 mph 26.5 mph N/A   Mostly Cloudy
3:09 PM 57.2 °F 48.2 °F 72% 29.89 in 10.0 mi NNE 10.4 mph 26.5 mph N/A   Mostly Cloudy
3:18 PM 57.2 °F 46.4 °F 67% 29.89 in 10.0 mi NNE 10.4 mph 25.3 mph N/A   Mostly Cloudy
3:55 PM 56.3 °F 47.5 °F 72% 29.90 in 10.0 mi NE 11.5 mph 21.9 mph N/A   Overcast
4:46 PM 55.4 °F 48.2 °F 77% 29.91 in 10.0 mi NNE 17.3 mph 24.2 mph N/A   Overcast
4:54 PM 55.4 °F 48.2 °F 77% 29.92 in 10.0 mi NE 9.2 mph 24.2 mph N/A   Overcast
4:55 PM 56.1 °F 47.7 °F 73% 29.92 in 10.0 mi NNE 8.1 mph 24.2 mph N/A   Overcast
5:03 PM 55.4 °F 48.2 °F 77% 29.92 in 10.0 mi NNE 12.7 mph 19.6 mph N/A   Overcast
5:24 PM 55.4 °F 46.4 °F 72% 29.93 in 10.0 mi NNE 10.4 mph 20.7 mph N/A   Overcast
5:26 PM 55.4 °F 46.4 °F 72% 29.94 in 10.0 mi NNE 12.7 mph 19.6 mph N/A   Overcast
5:55 PM 55.4 °F 45.9 °F 70% 29.96 in 10.0 mi NNE 9.2 mph 24.2 mph N/A   Overcast
6:09 PM 55.4 °F 46.4 °F 72% 29.97 in 10.0 mi NNE 10.4 mph 18.4 mph N/A   Overcast
6:10 PM 55.4 °F 46.4 °F 72% 29.97 in 10.0 mi NNE 10.4 mph 18.4 mph N/A   Overcast
6:13 PM 55.4 °F 46.4 °F 72% 29.97 in 10.0 mi NNE 13.8 mph 20.7 mph N/A   Overcast
6:30 PM 55.4 °F 46.4 °F 72% 29.98 in 10.0 mi NNE 11.5 mph 21.9 mph N/A   Overcast
6:55 PM 55.0 °F 44.8 °F 68% 30.00 in 10.0 mi NE 13.8 mph 18.4 mph N/A   Overcast
6:59 PM 55.4 °F 44.6 °F 67% 30.01 in 10.0 mi NNE 13.8 mph 25.3 mph N/A   Overcast
7:20 PM 55.4 °F 44.6 °F 67% 30.01 in 10.0 mi NE 16.1 mph 23.0 mph N/A   Overcast
7:55 PM 54.7 °F 43.0 °F 65% 30.03 in 10.0 mi NNE 9.2 mph 20.7 mph N/A   Mostly Cloudy
8:55 PM 54.3 °F 37.8 °F 54% 30.06 in 10.0 mi NNE 12.7 mph 23.0 mph N/A   Overcast
9:55 PM 53.6 °F 40.6 °F 62% 30.09 in 10.0 mi NNE 12.7 mph 24.2 mph N/A   Overcast
10:55 PM 52.5 °F 36.9 °F 55% 30.12 in 10.0 mi NNE 9.2 mph 19.6 mph N/A   Overcast
11:55 PM 50.2 °F 33.4 °F 53% 30.13 in 10.0 mi NE 9.2 mph 19.6 mph N/A   Clear